When you browse on this site, cookies collect data to enhance your experience and personalize the content and advertising you see.
Visit our Privacy Policy to learn more. By continuing to use the site, you agree to this use of cookies and data.
  • In Italy
  • List of Countries
  • For 7 days
  • Water Temperature
  • Satellite Maps
  • Weather Map
  • Weather Widgets
  • user-avatar
    Login

    Hourly Weather Yudinka

    Today, 24 April, Wednesday

    Time Temperature Precipitation Wind Pressure Humidity
    00:00 +13°C° 0 mm 2 mps 753 mmHg 61%
    01:00 +12°C° 0 mm 2 mps 753 mmHg 62%
    02:00 +12°C° 0 mm 2 mps 753 mmHg 64%
    03:00 +10°C° 0 mm 2 mps 753 mmHg 65%
    04:00 +10°C° 0 mm 2 mps 754 mmHg 67%
    05:00 +9°C° 0 mm 2 mps 754 mmHg 68%
    06:00 +9°C° 0 mm 2 mps 754 mmHg 70%
    07:00 +11°C° 0 mm 3 mps 754 mmHg 65%
    08:00 +13°C° 0 mm 3 mps 754 mmHg 59%
    09:00 +14°C° 0 mm 3 mps 754 mmHg 54%
    10:00 +17°C° 0 mm 3 mps 754 mmHg 49%
    11:00 +18°C° 0 mm 3 mps 754 mmHg 45%
    12:00 +19°C° 0 mm 3 mps 754 mmHg 40%
    13:00 +20°C° 0 mm 3 mps 754 mmHg 39%
    14:00 +21°C° 0 mm 3 mps 754 mmHg 38%
    15:00 +21°C° 0 mm 3 mps 753 mmHg 36%
    16:00 +21°C° 0 mm 3 mps 753 mmHg 38%
    17:00 +21°C° 0 mm 3 mps 753 mmHg 39%
    18:00 +21°C° 0 mm 3 mps 753 mmHg 41%
    19:00 +19°C° 0 mm 2 mps 753 mmHg 44%
    20:00 +18°C° 0 mm 2 mps 753 mmHg 47%
    21:00 +16°C° 0 mm 2 mps 753 mmHg 50%
    22:00 +16°C° 0 mm 2 mps 753 mmHg 52%
    23:00 +15°C° 0 mm 2 mps 753 mmHg 53%

    Tomorrow, 25 April, Thursday

    Time Temperature Precipitation Wind Pressure Humidity
    00:00 +14°C° 0 mm 2 mps 753 mmHg 54%
    01:00 +14°C° 0 mm 2 mps 753 mmHg 56%
    02:00 +13°C° 0 mm 2 mps 753 mmHg 58%
    03:00 +13°C° 0 mm 2 mps 753 mmHg 59%
    04:00 +13°C° 0 mm 2 mps 753 mmHg 61%
    05:00 +12°C° 0 mm 2 mps 753 mmHg 63%
    06:00 +12°C° 0 mm 2 mps 753 mmHg 65%
    07:00 +14°C° 0 mm 2 mps 753 mmHg 60%
    08:00 +16°C° 0 mm 2 mps 754 mmHg 54%
    09:00 +18°C° 0 mm 2 mps 754 mmHg 49%
    10:00 +19°C° 0 mm 2 mps 754 mmHg 45%
    11:00 +20°C° 0 mm 2 mps 753 mmHg 41%
    12:00 +22°C° 0 mm 3 mps 753 mmHg 36%
    13:00 +23°C° 0 mm 2 mps 753 mmHg 35%
    14:00 +23°C° 0 mm 2 mps 753 mmHg 34%
    15:00 +24°C° 0 mm 2 mps 752 mmHg 33%
    16:00 +24°C° 0 mm 2 mps 752 mmHg 35%
    17:00 +24°C° 0 mm 2 mps 752 mmHg 36%
    18:00 +23°C° 0 mm 1 mps 751 mmHg 38%
    19:00 +22°C° 0 mm 1 mps 751 mmHg 41%
    20:00 +20°C° 0 mm 1 mps 751 mmHg 45%
    21:00 +19°C° 0 mm 1 mps 751 mmHg 49%
    22:00 +19°C° 0 mm 1 mps 751 mmHg 50%
    23:00 +19°C° 0 mm 1 mps 752 mmHg 51%

    Day after tomorrow, 26 April, Friday

    Time Temperature Precipitation Wind Pressure Humidity
    00:00 +19°C° 0 mm 1 mps 752 mmHg 52%
    01:00 +18°C° 0.2 mm 1 mps 751 mmHg 55%
    02:00 +16°C° 0.2 mm 1 mps 751 mmHg 58%
    03:00 +14°C° 0.2 mm 0 mps 751 mmHg 61%
    04:00 +15°C° 0.2 mm 1 mps 751 mmHg 63%
    05:00 +15°C° 0.2 mm 1 mps 751 mmHg 65%
    06:00 +14°C° 0.2 mm 1 mps 751 mmHg 67%
    07:00 +15°C° 0.4 mm 1 mps 751 mmHg 63%
    08:00 +18°C° 0.4 mm 1 mps 751 mmHg 58%
    09:00 +19°C° 0.4 mm 1 mps 751 mmHg 54%
    10:00 +19°C° 0.1 mm 2 mps 751 mmHg 51%
    11:00 +20°C° 0.1 mm 2 mps 751 mmHg 47%
    12:00 +21°C° 0.1 mm 3 mps 751 mmHg 44%
    13:00 +21°C° 0.1 mm 2 mps 751 mmHg 45%
    14:00 +21°C° 0.1 mm 2 mps 750 mmHg 47%
    15:00 +21°C° 0.1 mm 2 mps 750 mmHg 49%
    16:00 +21°C° 0.1 mm 2 mps 750 mmHg 50%
    17:00 +20°C° 0.1 mm 2 mps 749 mmHg 51%
    18:00 +20°C° 0.1 mm 2 mps 749 mmHg 52%
    19:00 +19°C° 0.9 mm 2 mps 749 mmHg 57%
    20:00 +18°C° 0.9 mm 1 mps 749 mmHg 63%
    21:00 +16°C° 0.9 mm 1 mps 749 mmHg 69%
    22:00 +15°C° 0.1 mm 1 mps 749 mmHg 71%
    23:00 +15°C° 0.1 mm 1 mps 748 mmHg 73%

    27 April, Saturday

    Time Temperature Precipitation Wind Pressure Humidity
    00:00 +14°C° 0.1 mm 1 mps 748 mmHg 75%
    01:00 +14°C° 0 mm 1 mps 748 mmHg 75%
    02:00 +14°C° 0 mm 2 mps 748 mmHg 75%
    03:00 +13°C° 0 mm 2 mps 748 mmHg 75%
    04:00 +13°C° 0 mm 2 mps 747 mmHg 76%
    05:00 +13°C° 0 mm 2 mps 747 mmHg 77%
    06:00 +13°C° 0 mm 2 mps 747 mmHg 78%
    07:00 +13°C° 0 mm 3 mps 747 mmHg 72%
    08:00 +16°C° 0 mm 3 mps 747 mmHg 66%
    09:00 +18°C° 0 mm 3 mps 747 mmHg 60%
    10:00 +19°C° 0 mm 3 mps 746 mmHg 53%
    11:00 +20°C° 0 mm 4 mps 746 mmHg 47%
    12:00 +21°C° 0 mm 4 mps 746 mmHg 40%
    13:00 +21°C° 0 mm 3 mps 745 mmHg 44%
    14:00 +20°C° 0 mm 3 mps 745 mmHg 48%
    15:00 +20°C° 0 mm 2 mps 745 mmHg 52%
    16:00 +19°C° 0 mm 2 mps 744 mmHg 54%
    17:00 +19°C° 0 mm 2 mps 744 mmHg 55%
    18:00 +19°C° 0 mm 2 mps 744 mmHg 57%
    19:00 +18°C° 0.4 mm 2 mps 744 mmHg 62%
    20:00 +17°C° 0.4 mm 2 mps 744 mmHg 67%
    21:00 +15°C° 0.4 mm 2 mps 744 mmHg 71%
    22:00 +15°C° 0.4 mm 2 mps 744 mmHg 74%
    23:00 +15°C° 0.4 mm 1 mps 743 mmHg 76%

    28 April, Sunday

    Time Temperature Precipitation Wind Pressure Humidity
    00:00 +14°C° 0.4 mm 1 mps 743 mmHg 79%
    01:00 +14°C° 0.2 mm 1 mps 743 mmHg 81%
    02:00 +14°C° 0.2 mm 1 mps 743 mmHg 82%
    03:00 +14°C° 0.2 mm 1 mps 743 mmHg 84%
    04:00 +13°C° 0.5 mm 1 mps 743 mmHg 86%
    05:00 +13°C° 0.5 mm 1 mps 743 mmHg 88%
    06:00 +13°C° 0.5 mm 1 mps 743 mmHg 89%
    07:00 +14°C° 0.2 mm 1 mps 743 mmHg 87%
    08:00 +14°C° 0.2 mm 1 mps 743 mmHg 85%
    09:00 +15°C° 0.2 mm 1 mps 743 mmHg 83%
    10:00 +16°C° 0.4 mm 2 mps 743 mmHg 78%
    11:00 +17°C° 0.4 mm 2 mps 744 mmHg 73%
    12:00 +18°C° 0.4 mm 2 mps 744 mmHg 68%
    13:00 +17°C° 1.1 mm 3 mps 744 mmHg 71%
    14:00 +17°C° 1.1 mm 4 mps 744 mmHg 74%
    15:00 +15°C° 1.1 mm 5 mps 744 mmHg 77%
    16:00 +15°C° 0.2 mm 5 mps 745 mmHg 75%
    17:00 +14°C° 0.2 mm 6 mps 745 mmHg 74%
    18:00 +14°C° 0.2 mm 6 mps 745 mmHg 72%
    19:00 +13°C° 0 mm 6 mps 745 mmHg 73%
    20:00 +12°C° 0 mm 5 mps 746 mmHg 73%
    21:00 +10°C° 0 mm 5 mps 746 mmHg 73%
    22:00 +9°C° 0 mm 5 mps 747 mmHg 70%
    23:00 +8°C° 0 mm 5 mps 747 mmHg 67%

    29 April, Monday

    Time Temperature Precipitation Wind Pressure Humidity
    00:00 +7°C° 0 mm 6 mps 747 mmHg 64%
    01:00 +6°C° 0 mm 5 mps 748 mmHg 66%
    02:00 +5°C° 0 mm 5 mps 748 mmHg 67%
    03:00 +5°C° 0 mm 5 mps 748 mmHg 68%
    04:00 +3°C° 0 mm 5 mps 748 mmHg 67%
    05:00 +3°C° 0 mm 5 mps 749 mmHg 66%
    06:00 +2°C° 0 mm 5 mps 749 mmHg 65%
    07:00 +3°C° 0 mm 6 mps 750 mmHg 61%
    08:00 +4°C° 0 mm 6 mps 750 mmHg 56%
    09:00 +5°C° 0 mm 7 mps 750 mmHg 51%
    10:00 +6°C° 0 mm 7 mps 750 mmHg 48%
    11:00 +8°C° 0 mm 7 mps 750 mmHg 45%
    12:00 +9°C° 0 mm 6 mps 751 mmHg 42%
    13:00 +10°C° 0 mm 6 mps 750 mmHg 41%
    14:00 +10°C° 0 mm 6 mps 750 mmHg 41%
    15:00 +10°C° 0 mm 6 mps 750 mmHg 41%
    16:00 +10°C° 0 mm 5 mps 750 mmHg 42%
    17:00 +10°C° 0 mm 5 mps 750 mmHg 43%
    18:00 +9°C° 0 mm 5 mps 750 mmHg 44%
    19:00 +8°C° 0 mm 4 mps 750 mmHg 48%
    20:00 +7°C° 0 mm 4 mps 751 mmHg 53%
    21:00 +7°C° 0 mm 3 mps 751 mmHg 57%
    22:00 +5°C° 0 mm 3 mps 751 mmHg 58%
    23:00 +4°C° 0 mm 3 mps 751 mmHg 59%
    Show more